Regional Weather Roundup
Issued by NWS Upton, NY

Current Version | Previous Version | Text Only | Print | Product List | Glossary On
Versions: 1 2 3 4 5 6 7 8 9 10 11 12 13 14 15 16 17 18 19 20 21 22 23 24 25 26 27 28 29 30 31 32 33 34 35 36 37 38 39 40 41 42 43 44 45 46 47 48 49 50
422 ASUS41 KOKX 250909 RWROKX REGIONAL WEATHER ROUNDUP NATIONAL WEATHER SERVICE NEW YORK NY 500 AM EDT SUN JUN 25 2017 NOTE: "FAIR" INDICATES FEW OR NO CLOUDS BELOW 12,000 FEET WITH NO SIGNIFICANT WEATHER AND/OR OBSTRUCTIONS TO VISIBILITY. NYZ071-072-176-178-NJZ106-104-251000- NEW YORK CITY METRO AREA CITY SKY/WX TMP DP RH WIND PRES REMARKS Central Park CLEAR 70 58 65 VRB3 29.97R Bronx Bot Gard N/A 66 57 72 W1 29.95S LaGuardia APRT CLEAR 70 62 76 NW7 29.93R Kennedy INTL PTCLDY 69 61 75 CALM 29.95R Breezy Point N/A 70 N/A N/A NW5 N/A Newark/Liberty PTCLDY 70 58 65 NW3 29.94R Teterboro CLEAR 68 59 73 N3 29.94R $$ NYZ177-179-078>081-251000- LONG ISLAND NEW YORK CITY SKY/WX TMP DP RH WIND PRES REMARKS Jones Beach N/A 70 N/A N/A N3 N/A Matinecock PT NOT AVBL Farmingdale NOT AVBL MacArthur/ISP PTCLDY 65 62 90 CALM 29.93R Shirley CLEAR 63 61 93 CALM 29.94R Mt Sinai Harb N/A N/A N/A N/A MISG N/A Westhampton CLEAR 55 52 89 CALM 29.95R East Hampton FAIR 58 56 95 MISG 29.92R Montauk N/A 67 59 75 NW3 29.94R $$ NYZ052-065-067-251000- HUDSON VALLEY CITY SKY/WX TMP DP RH WIND PRES REMARKS White Plains NOT AVBL Larchmont Harb N/A 68 N/A N/A W3 N/A Croton O-T Hud N/A 64 N/A N/A CALM N/A Newburgh NOT AVBL Montgomery CLEAR 59 58 96 CALM 29.95R Poughkeepsie CLEAR 60 59 96 CALM 29.93R Albany PTCLDY 59 52 77 W6 29.93R $$ NJZ001-105-106-008-010-013-015-019>022-104-251000- NEW JERSEY CITY SKY/WX TMP DP RH WIND PRES REMARKS Newark/Liberty PTCLDY 70 58 65 NW3 29.94R Teterboro CLEAR 68 59 73 N3 29.94R Caldwell PTCLDY 65 59 81 CALM 29.96R Somerville PTCLDY 61 59 93 CALM 29.94R Linden FAIR 69 58 67 CALM 29.95R Perth Amboy N/A 70 N/A N/A W3 N/A Sussex CLEAR 58 58 100 CALM 29.96R Andover N/A 58 57 97 CALM 29.97R Trenton CLEAR 65 60 84 CALM 29.95R Millville CLEAR 63 63 100 CALM 29.95R Atlantic City CLEAR 67 62 84 NW3 29.94R Wrightstown PTCLDY 64 61 90 CALM 29.93R Toms River CLEAR 60 58 92 CALM 29.96R Belmar CLEAR 65 61 87 NW5 29.96R $$ PAZ047>061-062-071-251000- EASTERN PENNSYLVANIA CITY SKY/WX TMP DP RH WIND PRES REMARKS Philadelphia PTCLDY 70 60 70 N6 29.95R Allentown CLEAR 62 58 86 CALM 29.96S Scranton CLEAR 57 56 96 CALM 29.97S $$ CTZ002-004>006-009-010-012-RIZ004-006-007-MAZ004-011-015-251000- SOUTHERN NEW ENGLAND IN CT CITY SKY/WX TMP DP RH WIND PRES REMARKS Bradley INTL PTCLDY 64 55 72 SW5 29.93R Hartford CLEAR 63 61 93 CALM 29.93R Danbury CLEAR 60 59 96 SW3 29.96R Wtrbury/Oxford CLEAR 59 54 82 CALM 29.96R Bridgeport PTCLDY 68 60 75 CALM 29.93R Meriden PTCLDY 60 59 96 CALM 29.93R New Haven NOT AVBL Chester PTSUNNY 64 57 77 CALM 29.94R Groton CLEAR 61 58 90 CALM 29.92R Wilimantic CLEAR 63 59 87 SE3 29.93R IN RI CITY SKY/WX TMP DP RH WIND PRES REMARKS Providence MOCLDY 64 58 80 W6 29.92R Block Island CLEAR 64 58 80 W6 29.93R Westerly CLEAR 63 59 87 CALM 29.93R IN MA CITY SKY/WX TMP DP RH WIND PRES REMARKS Boston PTCLDY 71 52 50 W9 29.88R Worcester CLEAR 60 52 74 W8 29.93R Westfield CLEAR 59 56 89 E3 N/A Provincetown CLEAR 64 56 75 W7 29.89R Nantucket PTCLDY 61 60 97 SW7 29.91R FOG $$ ANZ330-335-338-340-345-350-353-355-251000- COASTAL MARINE OBSERVATIONS STATION/POSITION TIME SKY/WX TEMP WIND PRES VSBY WAVE AIR SEA DIR/SP/G HT/PER (UTC) (F) (DEG/KT/KT) (MB) (MI) (FT/S) NY HARB ENTRANCE 0750 68 67 270/ 6/ 6 1013.4 3/ 7 20 S FIRE ISLAND 0750 69 67 300/ 6/ 6 1012.5 4/ 8 GREAT SOUTH BAY 0830 71 76 360/ 4/ 6 N/A 23 SSW MONTAUK P 0750 66 63 1013.1 5/ 8 15 E BARNEGAT LI 0830 64 N/A 4/ 8 HUDSON CANYON 0750 69 67 220/ 8/ 8 1013.3 5/ 8 KINGS POINT 0830 69 66 80/ 2/ 3 1013.6 EXECUTION ROCKS 0845 68 180/ 2/ 4 N/A CENTRAL LI SOUND 0845 70 260/ 4/ 4 N/A 1 EASTERN LI SOUND NOT AVBL ROBBINS REEF 0824 330/ 4/ 6 1014.3 $$ >>>>>>>>>>>>>>>>>>>>>>>>>>>> KEY <<<<<<<<<<<<<<<<<<<<<<<<<<< > < > SKY/WX - Sky Condition/Present Weather < > TMP - Temperature in Fahrenheit < > DP - Dew Point in Fahrenheit < > RH - Relative Humidity in Percent < > WIND - Direction (from) and Speed in MPH < > PRES - Mean Sea Level Pressure (inches of Hg) < > WCI - Wind Chill Index < > VSB - VISIBILITY IN MILES < > HX - HEAT INDEX < > TC - TEMPERATURE IN CELSIUS < > VRB - VARIABLE WIND DIRECTION < > < >>>>>>>>>>>>>>>>>>>>>>>>>>>> KEY <<<<<<<<<<<<<<<<<<<<<<<<<<<

USA.gov is the U.S. government's official web portal to all federal, state and local government web resources and services.